www.pogodaiklimat.ru

Погода и климат >> Архив погоды >> Россия >> Приморский край >> Ольга


ПОГОДА в Ольге

  • Прогноз погоды в Ольге
  • Монитор погоды в Ольге

АРХИВ ПОГОДЫ в Ольге

Время (UTC), дата Ветер
(напр.,м/с)
 
Видим.   Явления Облачность Т
(С)
Тd
(С)
f
(%)
Тe
(С)
Тes
(С)
Комфортность P
(гПа)
Po
(гПа)
Тmin
(С)
Tmax
(С)
R
(мм)
R24
(мм)
S
(см)
09 12.07 С 3 4000 м слаб. дождь 10/10 300 м
[Frnb Ns]
+16.0 +14.9 93 +15 +15 1002.3 1000.0 +16.4 18
12 12.07 С 3 4000 м слаб. дождь 10/10 300 м
[Frnb Ns]
+15.7 +14.5 93 +15 +15 1001.9 999.6
15 12.07 С 2 4000 м слаб. дождь 10 баллов +15.9 +14.8 93 +16 +16 1002.4 1000.0
18 12.07 СВ 3 4000 м слаб. дождь 10 баллов +16.3 +14.8 91 +16 +16 1001.0 998.7
21 12.07 СВ 4
{10}
4000 м слаб. дождь 10/10 300 м
[Frnb Ns]
+16.0 +14.4 90 +15 +15 1001.7 999.4 +15.6 11
00 13.07 СВ 4-10
{13}
4000 м слаб. морось {дождь} 10/10 300 м
[St]
+16.2 +14.8 91 +15 +15 1002.8 1000.5
03 13.07 СВ 5-11
{11}
4000 м слаб. морось 10/10 300 м
[St]
+15.5 +14.3 93 +14 +14 1003.5 1001.2
06 13.07 СВ 4
{14}
4000 м слаб. морось {дождь} 10/10 300 м
[St]
+15.9 +14.4 91 +15 +15 1005.1 1002.7
09 13.07 СВ 5-12
{12}
2000 м морось 10/10 200 м
[St]
+15.1 +13.9 93 +14 +14 1004.1 1001.8 +16.3 2
12 13.07 СВ 3
{12}
4000 м дымка 10/10 300 м
[St]
+14.9 +13.0 88 +14 +14 1005.0 1002.7
18 13.07 СВ 1 4000 м слаб. морось 10 баллов +14.7 +13.7 94 +15 +15 1006.4 1004.0
21 13.07 СВ 2 4000 м слаб. морось 10/10 300 м
[St]
+14.8 +13.8 94 +14 +14 1005.4 1003.1 +14.3 1
00 14.07 СВ 1 4000 м морось 10/10 300 м
[St]
+15.6 +14.7 94 +16 +16 1005.6 1003.3
03 14.07 СВ 4
{10}
4000 м слаб. морось 10/10 300 м
[St]
+15.9 +14.4 91 +15 +15 1006.1 1003.8
06 14.07 СВ 5
{11}
4000 м слаб. морось 10/10 300 м
[St]
+16.4 +14.8 90 +15 +15 1005.6 1003.3
09 14.07 СВ 4-11
{15}
20 км {морось} 9/9 300 м
[St]
+15.5 +13.5 88 +14 +15 1007.7 1005.3 +16.6 2
12 14.07 С 3
{11}
4000 м слаб. морось 10/10 300 м
[St]
+14.6 +13.1 91 +14 +14 1008.2 1005.9
15 14.07 С 1 4000 м морось 10 баллов +14.7 +13.4 92 +15 +15 1010.4 1008.0
18 14.07 ЮЗ 1 4000 м дымка 10 баллов +14.6 +13.5 93 +15 +15 1010.4 1008.0
21 14.07 В 1 4000 м слаб. ливневой дождь 10/10 300 м
[Cb cap]
+14.8 +13.7 93 +15 +15 1011.2 1008.9 +14.4 6
00 15.07 СВ 3 4000 м слаб. ливневой дождь 10/10 300 м
[Cb cap]
+15.1 +13.7 91 +14 +14 1012.5 1010.2
03 15.07 В 2 4000 м дымка 10 баллов +15.9 +14.1 89 +16 +16 1014.4 1012.0
06 15.07 СВ 3 10 км 10 баллов +16.4 +13.9 85 +16 +16 1014.4 1012.0
09 15.07 С 3 10 км 10/10 300 м
[St]
+15.9 +13.4 85 +15 +15 1015.7 1013.3 +16.4 2
12 15.07 СВ 2 10 км в посл. час ливневой дождь 10/10 300 м
[St]
+15.1 +13.2 88 +15 +15 1015.3 1013.0
15 15.07 С 1 10 км 10 баллов +15.1 +13.0 87 +16 +16 1017.1 1014.7
18 15.07 штиль 0 4000 м дымка 10 баллов +14.6 +13.1 91 +14 +14 1015.7 1013.3
21 15.07 ЮЗ 1 4000 м дымка 10/10 300 м
[St]
+14.3 +13.4 94 +15 +15 1015.9 1013.6 +14.2 0.0
00 16.07 С 1 20 км 10/8 300 м
[St Ac trans]
+16.9 +13.5 80 +18 +19 1016.3 1014.0
03 16.07 С 2 20 км 10 баллов +18.2 +13.7 75 +19 +19 1017.1 1014.7
06 16.07 штиль 0 50 км 10 баллов +21.6 +15.4 68 +25 +25 комфорт 1015.6 1013.3
09 16.07 Ю 1 50 км 10/5 300 м
[Sc Ac trans Ci fib]
+18.1 +15.0 82 +19 +19 1015.7 1013.3 +21.6
12 16.07 штиль 0 10 км 8/0
[Ac trans Cc]
+14.7 +13.9 95 +14 +14 1014.2 1011.9
15 16.07 штиль 0 500 м туман н/о +12.5 +12.0 97 +12 1015.7 1013.3
18 16.07 СВ 1 500 м туман н/о +12.1 +11.6 97 +12 1014.4 1012.0
21 16.07 штиль 0 500 м туман ?/? +13.1 +12.9 99 +13 +13 1013.4 1011.1 +12.0
00 17.07 штиль 0 20 км {туман} 10/10 300 м
[Sc]
+18.4 +16.0 86 +19 +19 1012.8 1010.5
03 17.07 Ю 3 20 км 10 баллов +20.3 +16.5 79 +24 +24 комфорт 1013.0 1010.7
06 17.07 Ю 5 50 км 5 баллов +20.8 +16.6 77 +24 +27 комфорт 1011.6 1009.3
09 17.07 Ю 3 20 км 10/6 300 м
[Sc Ac trans Ci fib]
+16.8 +14.7 87 +17 +17 1010.3 1008.0 +21.6
12 17.07 С 1 10 км 8/4 1000 м
[Sc Ac trans Ci fib]
+14.8 +13.8 94 +15 +15 1010.6 1008.3
15 17.07 штиль 0 200 м туман н/о +14.2 +13.9 98 +14 1011.7 1009.3
18 17.07 С 1 200 м туман н/о +13.5 +13.2 98 +14 1010.4 1008.0
21 17.07 СВ 1 500 м туман ?/? +13.3 +13.1 99 +13 +13 1009.4 1007.1 +13.1
00 18.07 ЮЗ 3 50 км {туман} 10/1 300 м
[St Ac trans Cs]
+20.2 +17.2 83 +24 +28 комфорт 1008.6 1006.3
03 18.07 СВ 1 50 км 10 баллов +22.8 +17.9 74 +28 +28 душно 1009.0 1006.7
06 18.07 СВ 2 10 км гроза без осадков 9 баллов +17.9 +15.9 88 +18 +20 1009.0 1006.7
09 18.07 В 1 10 км {гроза} 10/4 300 м
[St Ac trans Cc]
+18.9 +16.5 86 +21 +21 комфорт 1007.6 1005.3 +24.7
12 18.07 СВ 2 500 м туман ?/? +15.9 +15.1 95 +16 +16 1007.7 1005.4
15 18.07 штиль 0 200 м туман н/о +14.8 +14.5 98 +14 1007.7 1005.3
18 18.07 штиль 0 200 м туман н/о +14.3 +14.1 99 +14 1007.7 1005.3
21 18.07 В 1 200 м туман ?/? +14.4 +14.2 99 +15 +15 1007.6 1005.3 +13.8
00 19.07 ЮЗ 1 50 км {туман} 3/0
[Ci fib]
+21.8 +19.2 85 +27 +40 душно 1007.4 1005.1
03 19.07 Ю 3 50 км 2 балла +26.6 +18.4 61 +31 +44 душно 1007.6 1005.3

 

Местоположение метеостанции Ольга (Приморский край, Россия): широта 43.75 долгота 135.30 высота над уровнем моря 20 м.

В архиве по умолчанию представлена погода в Ольге за последнюю неделю. Архивные данные за месяц целиком и за предыдущие месяцы, начиная с января 2011 года, Вы можете получить, выбрав интересующий диапазон дат из раскрывающегося списка и нажав кнопку "Ввод!".


*Определитесь, кто Вы:
робот инопланетянин человек

Внимание! Время в таблицах - всемирное. Для получения местного времени необходимо прибавить поправку, которая равна 10 ч.

Смотрите также архив погоды в соседних городах и на ближайших метеорологических станциях:

Погода в Дальнегорске (Приморский край, Россия) (31 км)
Погода в Богополе (Приморский край, Россия) (56 км)
Погода в Кавалерово (Приморский край, Россия) (61 км)
Погода в Рудной Пристани (Приморский край, Россия) (80 км)
Погода в Лучегорске (Приморский край, Россия) (81 км)
Погода в Лазо (Приморский край, Россия) (127 км)
Погода в Чугуевке (Приморский край, Россия) (128 км)
Погода в Преображении (Приморский край, Россия) (148 км)
Погода в Тернее (Приморский край, Россия) (173 км)
Погода в Анучино (Приморский край, Россия) (186 км)

Пояснения к столбцам:

Ветер - указаны скорость ветра в м/с - средняя за 10 мин, порывы в срок и между сроками (в фигурных скобках) и направление, откуда дует ветер: С - северный, СВ - северо-восточный, В - восточный, ЮВ - юго-восточный, Ю - южный, ЮЗ - юго-западный, З - западный, СЗ - северо-западный.
Видимость - горизонтальная дальность видимости в метрах или километрах. При видимости от 1 до 10 км при отсутствии осадков обычно наблюдается дымка, при ухудшении видимости до 1 км и менее - туман. В сухую погоду видимость может ухудшаться дымом, пылью или мглою.
Явления - указаны атмосферные явления, наблюдавшиеся в срок или в последний час перед сроком; фигурными скобками обозначены явления, наблюдавшиеся между сроками (за 1-3 часа до срока); квадратными скобками обозначены град или гололедные отложения с указанием их диаметра в мм.
Облачность - указаны через наклонную черту общая и нижняя облачность в баллах и высота нижней границы облаков в метрах; квадратными скобками обозначены формы облаков: Ci - перистые, Cs - перисто-слоистые, Cc - перисто-кучевые, Ac - высококучевые, As - высокослоистые, Sc - слоисто-кучевые, Ns - слоисто-дождевые, Cu - кучевые, Cb - кучево-дождевые. Подробнее классификацию облаков см. в Атласе облаков (PDF).
T - Температура воздуха - температура, измеренная на высоте 2 м над землей.
Td - Температура точки росы - температура, при понижении до которой содержащийся в воздухе водяной пар достигнет насыщения.
f - Относительная влажность воздуха - влажноcть воздуха, измеренная на высоте 2 м над землей.
Te - Эффективная температура - температура, которую ощущает одетый по сезону человек в тени. Характеристика душности погоды. При расчете учитывается влияние влажности воздуха и скорости ветра на теплоощущения человека.
Tes - Эффективная температура на солнце - температура, которую ощущает человек, с поправкой на солнечный нагрев. Характеристика знойности погоды. Зависит от высоты солнца над горизонтом, облачности и скорости ветра. Ночью, в пасмурную погоду, а также при ветре 12 м/с и более поправка равна нулю.
P - Атмосферное давление - приведенное к уровню моря атмосферное давление.
Po - Атмосферное давление - измеренное на уровне метеостанции атмосферное давление.
Tmin - Минимальная температура - минимум температуры воздуха на высоте 2 м над землей.
Tmax - Максимальная температура - максимум температуры воздуха на высоте 2 м над землей.
R - Количество осадков - Количество выпавших осадков за период времени, мм. При наведении курсора мыши на число - период времени, за который выпало указанное количество осадков.
R24 - Количество осадков - Количество выпавших осадков за 24 часа, мм.
S - Снежный покров - Высота снежного покрова, см. При наведении курсора мыши на число - состояние снежного покрова и степень покрытия местности в баллах.